This demonstration page uses our WeatherBlox Daily Observations layout. Learn more.

Left ArrowRight Arrow

44.8408, -93.29828

Hourly Observations for March 5, 2018

Temp ( °F °C ) Dew Point ( °F °C ) Humidity (%) Winds ( mph kmh ) Pressure ( in mb ) Visibility ( mi km ) Precip ( " mm )
12:53 am 00:53 Cloudy with Light Rain 37 2.8 24 -4.4 59 59 ESE 17 28 30.04 1017 10 16 0.01 0.25
1:02 am 01:02 Cloudy with Thunderstorms 36 2.2 25 -3.9 64 64 E 14 22 30.06 1018 4 6 0.01 0.25
1:17 am 01:17 Cloudy with Light Rain/Snow 36 2.2 25 -3.9 64 64 E 14 22 30.03 1017 10 16 0.01 0.25
1:19 am 01:19 Cloudy with Light Rain/Snow 36 2.2 26 -3.3 67 67 E 14 22 30.03 1017 10 16 0.01 0.25
1:53 am 01:53 Cloudy with Light Rain/Snow 35 1.7 26 -3.3 70 70 E 16 26 30.01 1016 10 16 0.03 0.76
2:38 am 02:38 Cloudy with Nearby Thunderstorms 36 2.2 25 -3.9 64 64 E 20 31 30.00 1016 10 16 0.00 0.03
2:53 am 02:53 Cloudy with Light Rain 35 1.7 25 -3.9 67 67 E 16 26 29.99 1016 10 16 0.01 0.25
3:53 am 03:53 Cloudy 35 1.7 26 -3.3 70 70 E 14 22 29.98 1015 10 16 0.00 0.03
4:53 am 04:53 Cloudy 35 1.7 26 -3.3 70 70 ESE 17 28 29.97 1015 10 16 0.00 0.00
5:53 am 05:53 Cloudy 36 2.2 26 -3.3 67 67 ESE 16 26 29.96 1015 10 16 0.00 0.00
6:53 am 06:53 Cloudy 36 2.2 25 -3.9 64 64 ESE 20 31 29.94 1014 10 16 0.00 0.00
7:53 am 07:53 Cloudy 36 2.2 25 -3.9 64 64 E 21 33 29.90 1012 10 16 0.00 0.03
8:40 am 08:40 Cloudy 35 1.7 24 -4.4 64 64 ESE 28 44 29.91 1013 10 16 0.00 0.03
8:53 am 08:53 Cloudy 35 1.7 25 -3.9 67 67 ESE 24 39 29.86 1011 10 16 0.00 0.03
9:09 am 09:09 Cloudy 35 1.7 25 -3.9 67 67 ESE 23 37 29.88 1012 10 16 0.00 0.03
9:53 am 09:53 Cloudy 35 1.7 24 -4.4 64 64 ESE 26 43 29.83 1010 10 16 0.00 0.03
10:17 am 10:17 Windy with Snow Likely 34 1.1 26 -3.3 73 73 ESE 28 44 29.85 1011 2 3 0.00 0.03
10:23 am 10:23 Cloudy with Nearby Thunderstorms 34 1.1 26 -3.3 73 73 ESE 26 43 29.85 1011 8 13 0.00 0.03
10:40 am 10:40 Windy with Snow Likely 34 1.1 26 -3.3 73 73 ESE 28 44 29.85 1011 9 14 0.00 0.03
10:53 am 10:53 Cloudy 35 1.7 25 -3.9 67 67 ESE 26 43 29.81 1010 8 13 0.00 0.03
10:57 am 10:57 Cloudy 34 1.1 25 -3.9 70 70 ESE 31 50 29.85 1011 8 13 0.00 0.03
11:19 am 11:19 Cloudy 34 1.1 25 -3.9 70 70 E 23 37 29.83 1010 8 13 0.00 0.03
11:53 am 11:53 Cloudy 35 1.7 24 -4.4 64 64 E 26 43 29.78 1009 10 16 0.00 0.03
12:53 pm 12:53 Cloudy 36 2.2 21 -6.1 55 55 E 26 43 29.74 1007 10 16 0.00 0.00
1:53 pm 13:53 Cloudy 35 1.7 23 -5 61 61 ESE 25 41 29.72 1007 9 14 0.00 0.00
2:27 pm 14:27 Cloudy with Light Freezing Rain 34 1.1 26 -3.3 73 73 ESE 28 44 29.77 1008 3 4 0.00 0.03
2:30 pm 14:30 Cloudy 34 1.1 26 -3.3 73 73 ESE 33 54 29.77 1008 3 5 0.00 0.03
2:43 pm 14:43 Cloudy 33 0.6 27 -2.8 78 78 E 25 41 29.77 1008 2 2 0.00 0.03
2:53 pm 14:53 Cloudy 33 0.6 27 -2.8 78 78 ESE 23 37 29.73 1007 7 11 0.01 0.25
3:15 pm 15:15 Cloudy 33 0.6 27 -2.8 78 78 ESE 28 44 29.77 1008 3 5 0.00 0.03
3:34 pm 15:34 Windy with Snow Likely 33 0.6 28 -2.2 82 82 E 24 39 29.77 1008 3 5 0.00 0.03
3:51 pm 15:51 Windy with Snow Likely 32 0 27 -3 80 80 E 22 35 29.77 1008 1 2 0.00 0.03
3:53 pm 15:53 Windy with Snow Likely 32 0 27 -2.8 82 82 E 21 33 29.73 1007 1 2 0.00 0.03
4:03 pm 16:03 Mostly Cloudy with Light Snow 32 0 28 -2.2 85 85 ESE 26 43 29.77 1008 1 1 0.00 0.03
4:09 pm 16:09 Cloudy with Snow 31 -0.6 29 -1.7 92 92 ESE 21 33 29.77 1008 0 0 0.00 0.03
4:16 pm 16:16 Cloudy with Heavy Snow 30 -1.1 29 -1.7 96 96 ESE 17 28 29.77 1008 0 0 0.00 0.03
4:24 pm 16:24 Mostly Cloudy with Heavy Snow 30 -1.1 30 -1.1 100 100 E 16 26 29.77 1008 1 2 0.03 0.76
4:35 pm 16:35 Mostly Cloudy with Heavy Snow 30 -1.1 30 -1.1 100 100 ESE 22 35 29.77 1008 0 0 0.05 1.27
4:53 pm 16:53 Mostly Cloudy with Heavy Snow 30 -1.1 30 -1.1 100 100 E 18 30 29.73 1007 0 0 0.10 2.54
5:02 pm 17:02 Mostly Cloudy with Snow 30 -1.1 29 -1.7 96 96 E 17 28 29.77 1008 1 1 0.03 0.76
5:43 pm 17:43 Windy with Snow Likely 30 -1.1 29 -1.7 96 96 E 20 31 29.77 1008 1 2 0.07 1.78
5:50 pm 17:50 Windy with Snow Likely 30 -1 28 -2 93 93 E 22 35 29.77 1008 1 2 0.07 1.78
5:53 pm 17:53 Windy with Snow Likely 30 -1.1 29 -1.7 96 96 E 23 37 29.73 1007 1 2 0.07 1.78
5:55 pm 17:55 Windy with Snow Likely 30 -1.1 28 -2.2 92 92 E 25 41 29.77 1008 1 1 0.00 0.03
6:15 pm 18:15 Windy with Snow Likely 29 -1.7 28 -2.2 96 96 E 20 31 29.77 1008 1 2 0.01 0.25
6:26 pm 18:26 Windy with Snow Likely 29 -1.7 28 -2.2 96 96 E 24 39 29.77 1008 1 1 0.01 0.25
6:53 pm 18:53 Mostly Cloudy with Light Snow 29 -1.7 27 -2.8 92 92 E 22 35 29.74 1007 1 2 0.03 0.76
7:11 pm 19:11 Mostly Cloudy with Light Snow 29 -1.7 28 -2.2 96 96 E 20 31 29.77 1008 1 1 0.01 0.25
7:20 pm 19:20 Mostly Cloudy with Light Snow 29 -1.7 28 -2.2 96 96 E 20 31 29.77 1008 1 2 0.02 0.51
7:30 pm 19:30 Mostly Cloudy with Light Snow 29 -1.7 27 -2.8 92 92 E 21 33 29.77 1008 1 1 0.02 0.51
7:53 pm 19:53 Mostly Cloudy with Light Snow 29 -1.7 27 -2.8 92 92 E 20 31 29.73 1007 1 2 0.03 0.76
8:03 pm 20:03 Windy with Snow Likely 29 -1.7 27 -2.8 92 92 E 21 33 29.77 1008 1 2 0.00 0.03
8:29 pm 20:29 Cloudy with Light Snow 28 -2.2 27 -2.8 96 96 E 18 30 29.77 1008 1 2 0.01 0.25
8:53 pm 20:53 Windy with Snow Likely 29 -1.7 27 -2.8 92 92 E 20 31 29.73 1007 1 2 0.01 0.25
9:12 pm 21:12 Windy with Snow Likely 28 -2.2 27 -2.8 96 96 E 22 35 29.77 1008 1 2 0.01 0.25
9:36 pm 21:36 Windy with Snow Likely 29 -1.7 27 -2.8 92 92 E 21 33 29.77 1008 1 2 0.01 0.25
9:53 pm 21:53 Windy with Snow Likely 29 -1.7 27 -2.8 92 92 E 20 31 29.72 1007 1 2 0.01 0.25
10:05 pm 22:05 Cloudy with Light Snow 29 -1.7 27 -2.8 92 92 E 18 30 29.77 1008 1 2 0.01 0.25
10:29 pm 22:29 Windy with Snow Likely 29 -1.7 26 -3.3 89 89 E 21 33 29.74 1007 4 6 0.01 0.25
10:53 pm 22:53 Windy with Snow Likely 29 -1.7 26 -3.3 89 89 E 23 37 29.71 1006 4 6 0.01 0.25
11:51 pm 23:51 Windy with Snow Likely 28 -2 27 -3 93 93 E 20 31 29.74 1007 2 3 0.00 0.03
11:53 pm 23:53 Cloudy with Light Snow 29 -1.7 26 -3.3 89 89 E 18 30 29.70 1006 2 3 0.00 0.03

Powered by AerisWeather